Location: Roc des P�zouls
(43.9667°N, 3.5500°E)
Time: 23:16:55
(UTC+00:00)

Lacrosse 5 - Pass Details

Date: 14 November 2019
Orbit: 715 x 724 km, 57.0° (Epoch: 04 December)

Event Time Altitude Azimuth Distance (km) Brightness Sun altitude
Exits shadow 05:35:46 15° 275° (W) 1,860 3.4 -11.5°
Maximum altitude 05:39:18 33° 333° (NNW) 1,191 2.7 -10.9°
Drops below altitude 10° 05:43:53 10° 37° (NE) 2,203 4.7 -10.1°
Sets 05:46:29 0° 47° (NE) 3,125 5.6 -9.7°
